Flag for United Kingdom Weather past 2 weeks in London, England, United Kingdom

Now
52 °F

Scattered clouds.


Feels Like: 47 °F
Forecast: 46 / 58 °F
Wind: 15 mph from East

Location: Northolt


UV Index: 3 (Moderate)

Visibility: N/A


Pressure: 30.01 "Hg

Humidity: 54%

Dew point: 36 °F

Location of LondonLocation

Historic Weather in London

°F

London temperature yesterday

Maximum temperature yesterday: 54 °F (at 3:50 PM)
Minimum temperature yesterday: 41 °F (at 4:50 AM)
Average temperature yesterday: 48 °F

Past Weeks' High & Low Weather Summary

 TemperatureHumidityPressure
High63 °F (Apr 9, 3:50 PM)100% (Apr 5, 7:50 AM)30.45 "Hg (Apr 5, 7:50 AM)
Low36 °F (Apr 15, 5:50 AM)30% (Apr 16, 8:50 PM)29.65 "Hg (Apr 7, 5:50 PM)
Average51 °F67%30.11 "Hg
* Reported Apr 4 7:50 PM — Apr 19 7:50 PM, London, Weather by CustomWeather, © 2014

Note: Actual official high and low records may vary slightly from our data, if they occured in-between our weather recording intervals... More about our weather records

Advertising

Historic Weather Conditions — Data for Previous 24 hours

 ConditionsComfort  
Time TempWeatherWind HumidityBarometerVisibility
7:50 PM
Apr 19
52 °FScattered clouds.15 mph54%30.01 "HgN/A
6:50 PM54 °FPassing clouds.14 mph47%29.98 "HgN/A
5:50 PM55 °FPassing clouds.13 mph44%30.01 "HgN/A
4:50 PM55 °FScattered clouds.12 mph44%30.01 "HgN/A
3:50 PM54 °FPassing clouds.14 mph51%30.01 "HgN/A
2:50 PM54 °FScattered clouds.14 mph51%30.04 "HgN/A
1:50 PM54 °FPartly sunny.12 mph47%30.04 "HgN/A
12:50 PM54 °FPartly sunny.14 mph44%30.07 "HgN/A
11:50 AM52 °FScattered clouds.12 mph44%30.07 "HgN/A
10:50 AM50 °FScattered clouds.14 mph47%30.09 "HgN/A
9:50 AM48 °FPassing clouds.15 mph54%30.09 "HgN/A
8:50 AM46 °FPassing clouds.14 mph57%30.09 "HgN/A
7:50 AM45 °FPassing clouds.10 mph61%30.09 "HgN/A
6:50 AM41 °FPassing clouds.8 mph70%30.09 "HgN/A
5:50 AM41 °FOvercast.6 mph70%30.09 "HgN/A
4:50 AM39 °FPassing clouds.6 mph75%30.09 "HgN/A
3:50 AM37 °FClear.5 mph81%30.09 "HgN/A
2:50 AM39 °FClear.6 mph75%30.12 "HgN/A
1:50 AM37 °FPassing clouds.3 mph87%30.12 "HgN/A
12:50 AM39 °FClear.5 mph81%30.12 "HgN/A
11:50 PM
Apr 18
43 °FPassing clouds.6 mph71%30.15 "HgN/A
10:50 PM45 °FPassing clouds.7 mph66%30.15 "HgN/A
9:50 PM46 °FPassing clouds.9 mph62%30.15 "HgN/A
Weather by CustomWeather, © 2014

See weather overview